Home > Weather > Los Angeles > Past weeks

Flag for U.S.A. Weather for the Past 2 Weeks in Los Angeles, California, U.S.A.

Now
73 °F

Clear.


Feels Like: 75 °F
Forecast: 56 / 83 °F
Wind: No wind

Location: Los Angeles / USC Campus Downtown

Current Time: Feb 7, 2016 at 6:58:24 PM

Latest Report: Feb 7, 2016 at 5:47 PM


Visibility: 10 mi

Pressure: 30.07 "Hg

Humidity: 18%

Dew point: 27 °F

Location of Los AngelesLocation

Historic Weather in Los Angeles — Graph

°F

Los Angeles Temperature Yesterday

Maximum temperature yesterday: 77 °F (at 1:47 PM)
Minimum temperature yesterday: 50 °F (at 5:47 AM)
Average temperature yesterday: 63 °F

High & Low Weather Summary for the Past Weeks

 TemperatureHumidityPressure
High83 °F (Feb 7, 12:47 PM)97% (Jan 31, 10:47 AM)30.36 "Hg (Jan 31, 10:47 AM)
Low41 °F (Feb 2, 5:47 AM)10% (Feb 7, 1:47 PM)29.59 "Hg (Jan 31, 1:47 PM)
Average58 °F48%30.12 "Hg
* Reported Jan 23 4:47 PM — Feb 7 4:47 PM, Los Angeles, Weather by CustomWeather, © 2016

Note: Actual official high and low records may vary slightly from our data, if they occured in-between our weather recording intervals... More about our weather records

Advertising

Los Angeles Weather History for the Previous 24 Hours

 ConditionsComfort  
Time TempWeatherWind HumidityBarometerVisibility
4:47 PM
Sun, Feb 7
78 °FSunny.6 mph12%30.06 "Hg10 mi
3:47 PM81 °FSunny.6 mph11%30.06 "Hg10 mi
2:47 PM82 °FSunny.5 mph12%30.06 "Hg10 mi
1:47 PM83 °FSunny.No wind10%30.06 "Hg10 mi
12:47 PM83 °FSunny.No wind11%30.08 "Hg10 mi
11:47 AM80 °FSunny.No wind13%30.11 "Hg10 mi
10:47 AM76 °FSunny.No wind14%30.13 "Hg10 mi
9:47 AM72 °FSunny.No wind17%30.14 "Hg10 mi
8:47 AM67 °FSunny.3 mph20%30.14 "Hg10 mi
7:47 AM59 °FSunny.3 mph27%30.13 "Hg10 mi
6:47 AM52 °FSunny.3 mph40%30.13 "Hg10 mi
5:47 AM53 °FClear.No wind35%30.11 "Hg10 mi
4:47 AM55 °FClear.No wind33%30.12 "Hg10 mi
3:47 AM52 °FClear.No wind41%30.12 "Hg10 mi
2:47 AM52 °FClear.No wind43%30.14 "Hg10 mi
1:47 AM54 °FClear.No wind40%30.15 "Hg10 mi
12:47 AM59 °FClear.No wind29%30.15 "Hg10 mi
11:47 PM
Sat, Feb 6
61 °FClear.No wind27%30.15 "Hg10 mi
10:47 PM58 °FClear.No wind38%30.15 "Hg10 mi
9:47 PM60 °FClear.No wind35%30.15 "Hg10 mi
8:47 PM62 °FClear.No wind32%30.15 "Hg10 mi
7:47 PM63 °FClear.No wind29%30.15 "Hg10 mi
6:47 PM65 °FClear.No wind24%30.14 "Hg10 mi
Weather by CustomWeather, © 2016

See weather overviewHow to use our weather pages